Regional Weather Roundup
Issued by NWS Green Bay, WI

Current Version | Previous Version | Text Only | Print | Product List | Glossary On
Versions: 1 2 3 4 5 6 7 8 9 10 11 12 13 14 15 16 17 18 19 20 21 22 23 24 25 26 27 28 29 30 31 32 33 34 35 36 37 38 39 40 41 42 43 44 45 46 47 48 49 50
000
ASUS43 KGRB 241311
RWRGRB

NORTH-CENTRAL AND NORTHEAST WISCONSIN REGIONAL WEATHER ROUNDUP
NATIONAL WEATHER SERVICE GREEN BAY WI
800 AM CDT THU JUN 24 2021

WIZ005-009-010>012-018-019-241400-
NORTH CENTRAL WISCONSIN

CITY           SKY/WX    TMP DP  RH WIND       PRES   REMARKS
IRONWOOD       PTSUNNY   68  65  90 CALM      29.75S
MANITOWISH WTR LGT RAIN  66  66 100 S6        29.76F
ARBOR VITAE    LGT RAIN  67  56  69 S5        29.77R
EAGLE RIVER    CLOUDY    64  64 100 CALM      29.80R
LAND O LAKES   CLOUDY    65  64  95 S3        29.79F
RHINELANDER    CLOUDY    65  63  93 S8        29.79F
PHILLIPS       PTSUNNY   66  66 100 CALM      29.77F
ANTIGO         CLOUDY    62  62 100 S6        29.83F
TOMAHAWK       PTSUNNY   64  64  97 CALM      29.82R
MERRILL        CLOUDY    65  65 100 CALM      29.82R
$$

WIZ013-073-241400-
NORTHEAST WISCONSIN

CITY           SKY/WX    TMP DP  RH WIND       PRES   REMARKS
IRON MOUNTAIN  LGT RAIN  65  62  90 S6        29.81S
MARINETTE      RAIN      63  62  97 N5        29.88R
OCONTO         CLOUDY    62  62 100 SW7       29.86F
$$

WIZ017-030-035>037-045-241400-
CENTRAL WISCONSIN

CITY           SKY/WX    TMP DP  RH WIND       PRES   REMARKS
MEDFORD        CLOUDY    64  64 100 SE5       29.80R
WAUSAU         CLOUDY    66  63  90 E6        29.82R
MOSINEE        PTSUNNY   63  63 100 E5        29.84R
MARSHFIELD     CLOUDY    70  61  73 E6        29.80S
WISC RAPIDS    CLOUDY    67  62  84 MISG      29.83R
STEVENS POINT  CLOUDY    62  62 100 SE5       29.85R THUNDER
WAUPACA        DRIZZLE   69  59  69 N10G23    29.90R
SHAWANO        TSTM      64  63  97 SE9       29.83F
CLINTONVILLE   RAIN      64  61  91 S12       29.84F
WAUTOMA        CLOUDY    71  59  65 S8        29.82S
$$

WIZ038-039-048-051-241400-
FOX VALLEY

CITY           SKY/WX    TMP DP  RH WIND       PRES   REMARKS
NWS GREEN BAY  TSTM      64  60  87 NW13G31   29.94R FOG
APPLETON       PTSUNNY   68  55  64 N23G32    29.93R
OSHKOSH        MOSUNNY   70  57  64 S14G23    29.83S
FOND DU LAC    NOT AVBL
$$

WIZ022-050-052-241400-
EAST CENTRAL WISCONSIN

CITY           SKY/WX    TMP DP  RH WIND       PRES   REMARKS
EPHRAIM        HVY RAIN  60  58  94 W6        29.88R
WASHINGTON ISL RAIN      61  58  92 SW13G20   29.89R
STURGEON BAY   TSTM      63  58  83 SW12      29.92R
MANITOWOC      CLOUDY    63  59  87 S8        29.87S
SHEBOYGAN      NOT AVBL
$$

LMZ563-521-522-541>543-241400-
LAKESHORE

STATION/POSITION TIME  TEMP    WIND        PRES    VSBY  WAVE
                       AIR SEA DIR/SP/G                  HT/PER
                 (UTC) (F)     (DEG/KT/KT) (MB)    (MI)  (FT/S)
SHEBOYGAN LKSHOR 1300   62     180/ 20/ 21   N/A
KEWAUNEE LKSHORE 1224   60     180/ 16/ 18 1009.4
NORTHPORT PIER   1240   63     180/  7/ 18 1011.9R
S GREEN BAY BUOY 1230   67 67  240/ 16/ 19 1011.7R         2/ 4
CHAMBERS ISLAND  1240   62     190/  5/ 11   N/A
MENOMINEE LKSHOR 1224   67 70  270/  6/ 10 1010.2
$$



USA.gov is the U.S. government's official web portal to all federal, state and local government web resources and services.